Time,TemperatureF,DewpointF,PressureIn,WindDirection,WindDirectionDegrees,WindSpeedMPH,WindSpeedGustMPH,Humidity,HourlyPrecipIn,Conditions,Clouds,dailyrainin,SoftwareType,DateUTC
2013-04-24 00:04:00,27.3,14.9,27.31,NW,315,0.0,0.0,59,0.00,,---,0.00,VWS V14.01,2013-04-24 05:04:00,
2013-04-24 00:09:00,27.7,18.5,27.31,NW,315,0.0,0.0,68,0.00,,---,0.00,VWS V14.01,2013-04-24 05:09:00,
2013-04-24 00:14:00,28.0,20.5,27.31,NW,315,2.2,2.7,73,0.00,,---,0.00,VWS V14.01,2013-04-24 05:14:00,
2013-04-24 00:19:00,28.4,20.9,27.31,North,0,1.3,2.0,73,0.00,,---,0.00,VWS V14.01,2013-04-24 05:19:00,
2013-04-24 00:24:00,28.4,20.9,27.31,West,270,2.9,2.9,73,0.00,,---,0.00,VWS V14.01,2013-04-24 05:24:00,
2013-04-24 00:29:00,28.4,20.9,27.31,WNW,292,2.9,3.4,73,0.00,,---,0.00,VWS V14.01,2013-04-24 05:29:00,
2013-04-24 00:34:00,28.2,21.3,27.31,WNW,292,2.9,2.9,75,0.00,,---,0.00,VWS V14.01,2013-04-24 05:34:00,
2013-04-24 00:39:00,28.4,22.4,27.31,West,270,3.8,3.8,78,0.00,,---,0.00,VWS V14.01,2013-04-24 05:39:00,
2013-04-24 00:44:00,28.8,22.8,27.31,West,270,5.6,5.8,78,0.00,,---,0.00,VWS V14.01,2013-04-24 05:44:00,
2013-04-24 00:49:00,28.8,22.8,27.31,West,270,5.6,5.6,78,0.00,,---,0.00,VWS V14.01,2013-04-24 05:49:00,
2013-04-24 00:54:00,28.6,22.3,27.31,NW,315,5.6,5.6,77,0.00,,---,0.00,VWS V14.01,2013-04-24 05:54:00,
2013-04-24 00:59:00,28.6,22.3,27.31,WNW,292,5.4,5.6,77,0.00,,---,0.00,VWS V14.01,2013-04-24 05:59:00,
2013-04-24 01:00:00,26.1,21.0,27.31,NW,315,3.4,5.6,81,0.00,,---,0.00,VWS V14.01,2013-04-24 06:00:00,
2013-04-24 01:04:00,28.6,22.3,27.31,West,270,4.9,5.6,77,0.00,,---,0.00,VWS V14.01,2013-04-24 06:04:00,
2013-04-24 01:09:00,28.6,22.3,27.31,West,270,4.9,5.6,77,0.00,,---,0.00,VWS V14.01,2013-04-24 06:09:00,
2013-04-24 01:14:00,28.6,22.3,27.31,NNW,338,3.1,5.6,77,0.00,,---,0.00,VWS V14.01,2013-04-24 06:14:00,
2013-04-24 01:15:00,26.1,21.0,27.31,West,270,3.6,3.6,81,0.00,,---,0.00,VWS V14.01,2013-04-24 06:15:00,
2013-04-24 01:19:00,27.3,21.1,27.31,NNW,338,2.5,5.6,77,0.00,,---,0.00,VWS V14.01,2013-04-24 06:19:00,
2013-04-24 01:24:00,27.3,21.1,27.31,NW,315,2.5,5.6,77,0.00,,---,0.00,VWS V14.01,2013-04-24 06:24:00,
2013-04-24 01:29:00,27.3,21.1,27.31,NW,315,2.5,5.6,77,0.00,,---,0.00,VWS V14.01,2013-04-24 06:29:00,
2013-04-24 01:34:00,27.3,21.1,27.31,NW,315,2.5,5.6,77,0.00,,---,0.00,VWS V14.01,2013-04-24 06:34:00,
2013-04-24 01:39:00,27.3,21.1,27.31,NW,315,2.5,5.6,77,0.00,,---,0.00,VWS V14.01,2013-04-24 06:39:00,
2013-04-24 01:44:00,26.1,21.0,27.31,West,270,2.7,5.6,81,0.00,,---,0.00,VWS V14.01,2013-04-24 06:44:00,
2013-04-24 01:49:00,26.1,21.0,27.31,NNW,338,2.7,5.6,81,0.00,,---,0.00,VWS V14.01,2013-04-24 06:49:00,
2013-04-24 01:54:00,26.1,21.0,27.31,NW,315,2.9,5.6,81,0.00,,---,0.00,VWS V14.01,2013-04-24 06:54:00,
2013-04-24 01:59:00,26.1,21.0,27.31,NW,315,3.4,5.6,81,0.00,,---,0.00,VWS V14.01,2013-04-24 06:59:00,
2013-04-24 02:04:00,26.1,21.0,27.31,NW,315,2.5,3.4,81,0.00,,---,0.00,VWS V14.01,2013-04-24 07:04:00,
2013-04-24 02:09:00,26.1,21.0,27.31,WNW,292,2.0,3.4,81,0.00,,---,0.00,VWS V14.01,2013-04-24 07:09:00,
2013-04-24 02:14:00,26.1,21.0,27.31,NW,315,2.5,3.4,81,0.00,,---,0.00,VWS V14.01,2013-04-24 07:14:00,
2013-04-24 02:15:00,25.3,20.3,27.28,NW,315,1.6,3.8,81,0.00,,---,0.00,VWS V14.01,2013-04-24 07:15:00,
2013-04-24 02:19:00,26.1,21.0,27.31,WNW,292,2.9,3.6,81,0.00,,---,0.00,VWS V14.01,2013-04-24 07:19:00,
2013-04-24 02:24:00,26.1,21.9,27.31,West,270,2.5,3.6,84,0.00,,---,0.00,VWS V14.01,2013-04-24 07:24:00,
2013-04-24 02:29:00,26.1,21.9,27.31,WNW,292,3.8,3.8,84,0.00,,---,0.00,VWS V14.01,2013-04-24 07:29:00,
2013-04-24 02:34:00,26.1,21.3,27.31,West,270,1.3,3.8,82,0.00,,---,0.00,VWS V14.01,2013-04-24 07:34:00,
2013-04-24 02:39:00,26.1,21.3,27.31,NW,315,2.7,3.8,82,0.00,,---,0.00,VWS V14.01,2013-04-24 07:39:00,
2013-04-24 02:44:00,26.1,21.3,27.31,NW,315,3.4,3.8,82,0.00,,---,0.00,VWS V14.01,2013-04-24 07:44:00,
2013-04-24 02:45:00,24.6,19.3,27.31,NW,315,2.7,3.6,80,0.00,,---,0.00,VWS V14.01,2013-04-24 07:45:00,
2013-04-24 02:49:00,26.1,21.3,27.28,NW,315,3.4,3.8,82,0.00,,---,0.00,VWS V14.01,2013-04-24 07:49:00,
2013-04-24 02:54:00,26.1,21.3,27.28,NW,315,3.4,3.8,82,0.00,,---,0.00,VWS V14.01,2013-04-24 07:54:00,
2013-04-24 02:59:00,25.5,20.5,27.28,NNW,338,2.5,3.8,81,0.00,,---,0.00,VWS V14.01,2013-04-24 07:59:00,
2013-04-24 03:00:00,24.6,19.3,27.31,North,0,3.1,3.1,80,0.00,,---,0.00,VWS V14.01,2013-04-24 08:00:00,
2013-04-24 03:04:00,25.5,20.5,27.28,NNW,338,2.5,3.8,81,0.00,,---,0.00,VWS V14.01,2013-04-24 08:04:00,
2013-04-24 03:09:00,25.3,20.3,27.28,NW,315,3.1,3.8,81,0.00,,---,0.00,VWS V14.01,2013-04-24 08:09:00,
2013-04-24 03:14:00,25.3,20.3,27.28,NW,315,1.6,3.8,81,0.00,,---,0.00,VWS V14.01,2013-04-24 08:14:00,
2013-04-24 03:15:00,24.8,19.5,27.31,West,270,3.1,6.0,80,0.00,,---,0.00,VWS V14.01,2013-04-24 08:15:00,
2013-04-24 03:19:00,25.0,19.7,27.28,NW,315,2.5,2.5,80,0.00,,---,0.00,VWS V14.01,2013-04-24 08:19:00,
2013-04-24 03:24:00,25.0,19.7,27.31,NW,315,2.9,3.1,80,0.00,,---,0.00,VWS V14.01,2013-04-24 08:24:00,
2013-04-24 03:29:00,25.0,19.7,27.31,WNW,292,2.5,3.1,80,0.00,,---,0.00,VWS V14.01,2013-04-24 08:29:00,
2013-04-24 03:30:00,25.0,19.4,27.31,NW,315,2.7,3.8,79,0.00,,---,0.00,VWS V14.01,2013-04-24 08:30:00,
2013-04-24 03:34:00,25.0,19.7,27.31,NW,315,2.9,3.1,80,0.00,,---,0.00,VWS V14.01,2013-04-24 08:34:00,
2013-04-24 03:39:00,24.6,19.3,27.31,North,0,3.1,3.6,80,0.00,,---,0.00,VWS V14.01,2013-04-24 08:39:00,
2013-04-24 03:44:00,24.6,19.3,27.31,NW,315,2.7,3.6,80,0.00,,---,0.00,VWS V14.01,2013-04-24 08:44:00,
2013-04-24 03:45:00,24.8,18.6,27.31,WSW,248,3.1,3.6,77,0.00,,---,0.00,VWS V14.01,2013-04-24 08:45:00,
2013-04-24 03:49:00,24.6,19.3,27.31,West,270,1.6,2.7,80,0.00,,---,0.00,VWS V14.01,2013-04-24 08:49:00,
2013-04-24 03:54:00,24.6,19.3,27.31,NW,315,2.2,2.7,80,0.00,,---,0.00,VWS V14.01,2013-04-24 08:54:00,
2013-04-24 03:59:00,24.6,19.3,27.31,North,0,2.5,2.9,80,0.00,,---,0.00,VWS V14.01,2013-04-24 08:59:00,
2013-04-24 04:04:00,24.6,19.3,27.31,NW,315,3.1,3.6,80,0.00,,---,0.00,VWS V14.01,2013-04-24 09:04:00,
2013-04-24 04:09:00,24.6,19.3,27.31,West,270,3.8,6.0,80,0.00,,---,0.00,VWS V14.01,2013-04-24 09:09:00,
2013-04-24 04:14:00,24.8,19.5,27.31,West,270,3.8,6.0,80,0.00,,---,0.00,VWS V14.01,2013-04-24 09:14:00,
2013-04-24 04:19:00,24.8,19.5,27.31,West,270,3.1,3.1,80,0.00,,---,0.00,VWS V14.01,2013-04-24 09:19:00,
2013-04-24 04:24:00,25.0,19.4,27.31,West,270,3.1,3.8,79,0.00,,---,0.00,VWS V14.01,2013-04-24 09:24:00,
2013-04-24 04:29:00,25.0,19.4,27.31,West,270,3.1,3.8,79,0.00,,---,0.00,VWS V14.01,2013-04-24 09:29:00,
2013-04-24 04:30:00,24.4,18.0,27.28,West,270,3.8,4.9,76,0.00,,---,0.00,VWS V14.01,2013-04-24 09:30:00,
2013-04-24 04:34:00,25.0,19.4,27.31,WNW,292,3.4,3.4,79,0.00,,---,0.00,VWS V14.01,2013-04-24 09:34:00,
2013-04-24 04:39:00,25.0,19.4,27.31,WNW,292,3.1,3.4,79,0.00,,---,0.00,VWS V14.01,2013-04-24 09:39:00,
2013-04-24 04:44:00,24.8,18.6,27.31,NW,315,3.6,3.6,77,0.00,,---,0.00,VWS V14.01,2013-04-24 09:44:00,
2013-04-24 04:49:00,25.0,18.5,27.31,NE,45,1.1,3.1,76,0.00,,---,0.00,VWS V14.01,2013-04-24 09:49:00,
2013-04-24 04:54:00,25.0,18.5,27.31,North,0,2.9,3.1,76,0.00,,---,0.00,VWS V14.01,2013-04-24 09:54:00,
2013-04-24 04:59:00,25.0,18.5,27.31,NW,315,2.5,3.1,76,0.00,,---,0.00,VWS V14.01,2013-04-24 09:59:00,
2013-04-24 05:00:00,23.7,17.3,27.28,NW,315,5.8,5.8,76,0.00,,---,0.00,VWS V14.01,2013-04-24 10:00:00,
2013-04-24 05:04:00,24.4,18.3,27.31,NW,315,4.3,4.9,77,0.00,,---,0.00,VWS V14.01,2013-04-24 10:04:00,
2013-04-24 05:09:00,24.4,18.3,27.28,NW,315,2.7,4.9,77,0.00,,---,0.00,VWS V14.01,2013-04-24 10:09:00,
2013-04-24 05:14:00,24.4,18.3,27.28,NW,315,2.7,4.9,77,0.00,,---,0.00,VWS V14.01,2013-04-24 10:14:00,
2013-04-24 05:19:00,24.3,18.1,27.28,WNW,292,4.3,4.9,77,0.00,,---,0.00,VWS V14.01,2013-04-24 10:19:00,
2013-04-24 05:24:00,24.4,18.3,27.28,West,270,4.3,4.9,77,0.00,,---,0.00,VWS V14.01,2013-04-24 10:24:00,
2013-04-24 05:29:00,24.4,18.0,27.28,WSW,248,4.0,4.9,76,0.00,,---,0.00,VWS V14.01,2013-04-24 10:29:00,
2013-04-24 05:30:00,23.4,17.2,27.28,NW,315,2.9,6.3,77,0.00,,---,0.00,VWS V14.01,2013-04-24 10:30:00,
2013-04-24 05:34:00,24.4,18.0,27.28,West,270,3.8,3.8,76,0.00,,---,0.00,VWS V14.01,2013-04-24 10:34:00,
2013-04-24 05:39:00,24.4,18.0,27.28,West,270,2.5,4.3,76,0.00,,---,0.00,VWS V14.01,2013-04-24 10:39:00,
2013-04-24 05:44:00,24.4,18.0,27.28,SW,225,2.2,4.3,76,0.00,,---,0.00,VWS V14.01,2013-04-24 10:44:00,
2013-04-24 05:49:00,24.4,18.0,27.28,WNW,292,2.2,4.3,76,0.00,,---,0.00,VWS V14.01,2013-04-24 10:49:00,
2013-04-24 05:54:00,23.9,17.5,27.28,SSE,158,2.9,4.3,76,0.00,,---,0.00,VWS V14.01,2013-04-24 10:54:00,
2013-04-24 05:59:00,23.7,17.3,27.28,West,270,2.0,4.9,76,0.00,,---,0.00,VWS V14.01,2013-04-24 10:59:00,
2013-04-24 06:00:00,22.8,16.7,27.28,North,0,3.4,4.0,77,0.00,,---,0.00,VWS V14.01,2013-04-24 11:00:00,
2013-04-24 06:04:00,23.9,17.8,27.28,NNW,338,6.3,6.3,77,0.00,,---,0.00,VWS V14.01,2013-04-24 11:04:00,
2013-04-24 06:09:00,23.9,17.8,27.28,SSE,158,1.3,6.3,77,0.00,,---,0.00,VWS V14.01,2013-04-24 11:09:00,
2013-04-24 06:14:00,23.9,17.8,27.28,North,0,0.0,6.3,77,0.00,,---,0.00,VWS V14.01,2013-04-24 11:14:00,
2013-04-24 06:15:00,22.8,16.7,27.28,NW,315,2.7,3.6,77,0.00,,---,0.00,VWS V14.01,2013-04-24 11:15:00,
2013-04-24 06:19:00,23.9,17.8,27.28,North,0,2.9,6.3,77,0.00,,---,0.00,VWS V14.01,2013-04-24 11:19:00,
2013-04-24 06:24:00,23.4,16.9,27.28,North,0,2.0,6.3,76,0.00,,---,0.00,VWS V14.01,2013-04-24 11:24:00,
2013-04-24 06:29:00,23.4,17.2,27.28,NW,315,0.0,6.3,77,0.00,,---,0.00,VWS V14.01,2013-04-24 11:29:00,
2013-04-24 06:34:00,23.2,16.8,27.28,NW,315,3.4,3.4,76,0.00,,---,0.00,VWS V14.01,2013-04-24 11:34:00,
2013-04-24 06:39:00,23.2,16.8,27.28,NNW,338,2.5,4.0,76,0.00,,---,0.00,VWS V14.01,2013-04-24 11:39:00,
2013-04-24 06:44:00,22.8,16.7,27.28,NW,315,2.7,4.0,77,0.00,,---,0.00,VWS V14.01,2013-04-24 11:44:00,
2013-04-24 06:45:00,28.6,17.6,27.28,West,270,4.9,4.9,63,0.00,,---,0.00,VWS V14.01,2013-04-24 11:45:00,
2013-04-24 06:49:00,22.8,16.7,27.28,NW,315,4.0,4.0,77,0.00,,---,0.00,VWS V14.01,2013-04-24 11:49:00,
2013-04-24 06:54:00,22.8,16.7,27.28,North,0,3.4,4.0,77,0.00,,---,0.00,VWS V14.01,2013-04-24 11:54:00,
2013-04-24 06:59:00,22.8,16.7,27.28,North,0,3.4,4.0,77,0.00,,---,0.00,VWS V14.01,2013-04-24 11:59:00,
2013-04-24 07:00:00,29.5,18.8,27.28,West,270,2.9,6.3,64,0.00,,---,0.00,VWS V14.01,2013-04-24 12:00:00,
2013-04-24 07:04:00,22.8,16.7,27.28,North,0,3.1,3.4,77,0.00,,---,0.00,VWS V14.01,2013-04-24 12:04:00,
2013-04-24 07:09:00,22.8,16.7,27.28,North,0,3.1,3.4,77,0.00,,---,0.00,VWS V14.01,2013-04-24 12:09:00,
2013-04-24 07:14:00,22.8,16.7,27.28,North,0,2.7,3.6,77,0.00,,---,0.00,VWS V14.01,2013-04-24 12:14:00,
2013-04-24 07:15:00,31.3,20.2,27.28,WNW,292,1.6,3.6,63,0.00,,---,0.00,VWS V14.01,2013-04-24 12:15:00,
2013-04-24 07:19:00,25.2,19.0,27.28,NE,45,0.9,2.7,77,0.00,,---,0.00,VWS V14.01,2013-04-24 12:19:00,
2013-04-24 07:24:00,25.2,19.0,27.28,NW,315,1.6,2.7,77,0.00,,---,0.00,VWS V14.01,2013-04-24 12:24:00,
2013-04-24 07:29:00,25.2,19.0,27.28,East,90,0.0,2.7,77,0.00,,---,0.00,VWS V14.01,2013-04-24 12:29:00,
2013-04-24 07:30:00,34.2,20.9,27.31,WNW,292,3.8,6.3,58,0.00,,---,0.00,VWS V14.01,2013-04-24 12:30:00,
2013-04-24 07:34:00,25.2,19.0,27.28,North,0,2.5,2.7,77,0.00,,---,0.00,VWS V14.01,2013-04-24 12:34:00,
2013-04-24 07:39:00,25.2,19.0,27.28,North,0,1.3,2.7,77,0.00,,---,0.00,VWS V14.01,2013-04-24 12:39:00,
2013-04-24 07:44:00,25.2,19.0,27.28,North,0,1.3,2.7,77,0.00,,---,0.00,VWS V14.01,2013-04-24 12:44:00,
2013-04-24 07:45:00,35.1,21.0,27.31,West,270,5.4,6.0,56,0.00,,---,0.00,VWS V14.01,2013-04-24 12:45:00,
2013-04-24 07:49:00,28.6,17.6,27.28,WNW,292,3.8,4.9,63,0.00,,---,0.00,VWS V14.01,2013-04-24 12:49:00,
2013-04-24 07:54:00,29.1,18.5,27.28,NW,315,6.3,6.3,64,0.00,,---,0.00,VWS V14.01,2013-04-24 12:54:00,
2013-04-24 07:59:00,29.1,18.5,27.28,West,270,4.0,6.3,64,0.00,,---,0.00,VWS V14.01,2013-04-24 12:59:00,
2013-04-24 08:03:00,29.5,18.8,27.28,WNW,292,2.7,3.6,64,0.00,,---,0.00,VWS V14.01,2013-04-24 13:03:00,
2013-04-24 08:08:00,29.8,19.5,27.28,WSW,248,2.7,3.6,65,0.00,,---,0.00,VWS V14.01,2013-04-24 13:08:00,
2013-04-24 08:13:00,31.3,20.2,27.28,West,270,3.1,3.6,63,0.00,,---,0.00,VWS V14.01,2013-04-24 13:13:00,
2013-04-24 08:15:00,36.9,22.6,27.31,West,270,5.8,8.5,56,0.00,,---,0.00,VWS V14.01,2013-04-24 13:15:00,
2013-04-24 08:18:00,31.3,20.2,27.28,West,270,3.4,3.6,63,0.00,,---,0.00,VWS V14.01,2013-04-24 13:18:00,
2013-04-24 08:23:00,31.3,20.2,27.31,West,270,5.4,5.4,63,0.00,,---,0.00,VWS V14.01,2013-04-24 13:23:00,
2013-04-24 08:28:00,34.2,20.9,27.31,West,270,6.3,6.3,58,0.00,,---,0.00,VWS V14.01,2013-04-24 13:28:00,
2013-04-24 08:30:00,38.5,23.3,27.31,SW,225,4.9,10.5,54,0.00,,---,0.00,VWS V14.01,2013-04-24 13:30:00,
2013-04-24 08:33:00,34.2,20.9,27.31,WNW,292,4.0,5.6,58,0.00,,---,0.00,VWS V14.01,2013-04-24 13:33:00,
2013-04-24 08:38:00,35.1,21.0,27.31,West,270,6.0,6.0,56,0.00,,---,0.00,VWS V14.01,2013-04-24 13:38:00,
2013-04-24 08:43:00,35.1,21.0,27.31,West,270,5.4,6.0,56,0.00,,---,0.00,VWS V14.01,2013-04-24 13:43:00,
2013-04-24 08:45:00,38.5,23.3,27.31,WNW,292,6.9,6.9,54,0.00,,---,0.00,VWS V14.01,2013-04-24 13:45:00,
2013-04-24 08:48:00,35.1,21.0,27.31,West,270,2.9,5.4,56,0.00,,---,0.00,VWS V14.01,2013-04-24 13:48:00,
2013-04-24 08:53:00,35.1,21.0,27.31,WNW,292,4.3,5.4,56,0.00,,---,0.00,VWS V14.01,2013-04-24 13:53:00,
2013-04-24 08:58:00,35.1,21.0,27.31,WNW,292,3.4,5.4,56,0.00,,---,0.00,VWS V14.01,2013-04-24 13:58:00,
2013-04-24 09:00:00,41.9,25.1,27.31,West,270,5.4,7.4,51,0.00,,---,0.00,VWS V14.01,2013-04-24 14:00:00,
2013-04-24 09:03:00,36.7,22.5,27.31,WNW,292,4.9,5.4,56,0.00,,---,0.00,VWS V14.01,2013-04-24 14:03:00,
2013-04-24 09:08:00,36.9,22.6,27.31,NW,315,7.4,7.4,56,0.00,,---,0.00,VWS V14.01,2013-04-24 14:08:00,
2013-04-24 09:13:00,36.9,22.6,27.31,West,270,8.5,8.5,56,0.00,,---,0.00,VWS V14.01,2013-04-24 14:13:00,
2013-04-24 09:15:00,41.9,25.1,27.31,West,270,2.9,6.0,51,0.00,,---,0.00,VWS V14.01,2013-04-24 14:15:00,
2013-04-24 09:18:00,36.9,22.6,27.31,WNW,292,6.0,6.0,56,0.00,,---,0.00,VWS V14.01,2013-04-24 14:18:00,
2013-04-24 09:23:00,36.9,22.6,27.31,West,270,8.7,10.5,56,0.00,,---,0.00,VWS V14.01,2013-04-24 14:23:00,
2013-04-24 09:28:00,38.1,23.0,27.31,WNW,292,6.5,10.5,54,0.00,,---,0.00,VWS V14.01,2013-04-24 14:28:00,
2013-04-24 09:33:00,38.5,23.3,27.31,SW,225,4.9,4.9,54,0.00,,---,0.00,VWS V14.01,2013-04-24 14:33:00,
2013-04-24 09:38:00,38.5,23.3,27.31,WNW,292,5.8,6.5,54,0.00,,---,0.00,VWS V14.01,2013-04-24 14:38:00,
2013-04-24 09:43:00,38.5,23.3,27.31,WNW,292,6.9,6.9,54,0.00,,---,0.00,VWS V14.01,2013-04-24 14:43:00,
2013-04-24 09:48:00,38.5,23.3,27.31,WNW,292,6.9,6.9,54,0.00,,---,0.00,VWS V14.01,2013-04-24 14:48:00,
2013-04-24 09:53:00,38.5,23.3,27.31,West,270,7.4,7.4,54,0.00,,---,0.00,VWS V14.01,2013-04-24 14:53:00,
2013-04-24 09:58:00,41.9,25.1,27.31,WNW,292,3.6,7.4,51,0.00,,---,0.00,VWS V14.01,2013-04-24 14:58:00,
2013-04-24 10:03:00,41.9,25.1,27.31,West,270,4.9,5.4,51,0.00,,---,0.00,VWS V14.01,2013-04-24 15:03:00,
2013-04-24 10:09:00,41.9,25.1,27.31,SW,225,4.3,6.0,51,0.00,,---,0.00,VWS V14.01,2013-04-24 15:09:00,
2013-04-24 10:14:00,41.9,25.1,27.31,West,270,2.9,6.0,51,0.00,,---,0.00,VWS V14.01,2013-04-24 15:14:00,
2013-04-24 10:19:00,41.9,25.1,27.31,West,270,2.9,2.9,51,0.00,,---,0.00,VWS V14.01,2013-04-24 15:19:00,
2013-04-24 10:24:00,41.9,25.1,27.31,West,270,4.9,4.9,51,0.00,,---,0.00,VWS V14.01,2013-04-24 15:24:00,
2013-04-24 10:29:00,45.3,27.8,27.31,West,270,3.8,4.9,50,0.00,,---,0.00,VWS V14.01,2013-04-24 15:29:00,
2013-04-24 10:30:00,49.8,29.4,27.31,SW,225,3.8,6.5,45,0.00,,---,0.00,VWS V14.01,2013-04-24 15:30:00,
2013-04-24 10:34:00,45.5,27.5,27.31,NW,315,3.8,4.9,49,0.00,,---,0.00,VWS V14.01,2013-04-24 15:34:00,
2013-04-24 10:39:00,45.5,27.5,27.31,North,0,3.6,5.6,49,0.00,,---,0.00,VWS V14.01,2013-04-24 15:39:00,
2013-04-24 10:44:00,45.5,27.5,27.31,WSW,248,4.9,6.5,49,0.00,,---,0.00,VWS V14.01,2013-04-24 15:44:00,
2013-04-24 10:49:00,45.5,27.5,27.31,SSW,202,3.6,6.5,49,0.00,,---,0.00,VWS V14.01,2013-04-24 15:49:00,
2013-04-24 10:54:00,45.5,27.5,27.31,SW,225,5.4,6.5,49,0.00,,---,0.00,VWS V14.01,2013-04-24 15:54:00,
2013-04-24 10:59:00,45.5,27.5,27.31,NW,315,2.9,6.5,49,0.00,,---,0.00,VWS V14.01,2013-04-24 15:59:00,
2013-04-24 11:00:00,53.4,30.9,27.31,West,270,8.1,8.1,42,0.00,,---,0.00,VWS V14.01,2013-04-24 16:00:00,
2013-04-24 11:04:00,48.0,28.8,27.31,NNW,338,4.3,6.5,47,0.00,,---,0.00,VWS V14.01,2013-04-24 16:04:00,
2013-04-24 11:09:00,48.6,28.7,27.31,SW,225,5.6,6.5,46,0.00,,---,0.00,VWS V14.01,2013-04-24 16:09:00,
2013-04-24 11:14:00,48.7,29.4,27.31,SW,225,3.1,6.5,47,0.00,,---,0.00,VWS V14.01,2013-04-24 16:14:00,
2013-04-24 11:15:00,55.2,29.4,27.31,NW,315,8.5,10.3,37,0.00,,---,0.00,VWS V14.01,2013-04-24 16:15:00,
2013-04-24 11:19:00,48.7,29.4,27.31,WNW,292,3.4,6.5,47,0.00,,---,0.00,VWS V14.01,2013-04-24 16:19:00,
2013-04-24 11:24:00,48.7,29.4,27.31,SW,225,4.3,6.5,47,0.00,,---,0.00,VWS V14.01,2013-04-24 16:24:00,
2013-04-24 11:29:00,49.8,29.4,27.31,NW,315,2.7,6.5,45,0.00,,---,0.00,VWS V14.01,2013-04-24 16:29:00,
2013-04-24 11:34:00,49.8,29.4,27.31,SW,225,3.8,3.8,45,0.00,,---,0.00,VWS V14.01,2013-04-24 16:34:00,
2013-04-24 11:39:00,49.8,29.4,27.31,NW,315,3.1,3.8,45,0.00,,---,0.00,VWS V14.01,2013-04-24 16:39:00,
2013-04-24 11:44:00,49.8,29.4,27.31,SW,225,3.8,5.6,45,0.00,,---,0.00,VWS V14.01,2013-04-24 16:44:00,
2013-04-24 11:45:00,58.8,32.0,27.28,WSW,248,6.3,9.6,36,0.00,,---,0.00,VWS V14.01,2013-04-24 16:45:00,
2013-04-24 11:49:00,49.8,29.4,27.31,SW,225,3.8,5.6,45,0.00,,---,0.00,VWS V14.01,2013-04-24 16:49:00,
2013-04-24 11:54:00,49.8,29.4,27.31,SW,225,3.4,5.6,45,0.00,,---,0.00,VWS V14.01,2013-04-24 16:54:00,
2013-04-24 11:59:00,53.4,30.9,27.31,SW,225,3.4,6.5,42,0.00,,---,0.00,VWS V14.01,2013-04-24 16:59:00,
2013-04-24 12:00:00,59.5,27.3,27.25,West,270,3.1,9.2,29,0.00,,---,0.00,VWS V14.01,2013-04-24 17:00:00,
2013-04-24 12:04:00,53.4,30.9,27.31,NW,315,10.3,10.3,42,0.00,,---,0.00,VWS V14.01,2013-04-24 17:04:00,
2013-04-24 12:09:00,55.0,29.9,27.31,NW,315,5.8,10.3,38,0.00,,---,0.00,VWS V14.01,2013-04-24 17:09:00,
2013-04-24 12:14:00,55.2,29.4,27.31,West,270,5.4,10.3,37,0.00,,---,0.00,VWS V14.01,2013-04-24 17:14:00,
2013-04-24 12:15:00,58.5,7.8,27.25,NW,315,12.3,14.3,13,0.00,,---,0.00,VWS V14.01,2013-04-24 17:15:00,
2013-04-24 12:19:00,55.2,29.4,27.28,WNW,292,7.8,8.5,37,0.00,,---,0.00,VWS V14.01,2013-04-24 17:19:00,
2013-04-24 12:24:00,56.1,29.5,27.28,West,270,4.9,9.6,36,0.00,,---,0.00,VWS V14.01,2013-04-24 17:24:00,
2013-04-24 12:29:00,56.1,29.5,27.28,West,270,7.8,9.6,36,0.00,,---,0.00,VWS V14.01,2013-04-24 17:29:00,
2013-04-24 12:34:00,58.3,31.5,27.28,WSW,248,3.6,9.6,36,0.00,,---,0.00,VWS V14.01,2013-04-24 17:34:00,
2013-04-24 12:39:00,58.5,30.9,27.28,West,270,6.3,9.6,35,0.00,,---,0.00,VWS V14.01,2013-04-24 17:39:00,
2013-04-24 12:44:00,58.8,32.0,27.28,WSW,248,6.3,9.6,36,0.00,,---,0.00,VWS V14.01,2013-04-24 17:44:00,
2013-04-24 12:45:00,58.5,-5.4,27.25,NW,315,9.2,16.8,7,0.00,,---,0.00,VWS V14.01,2013-04-24 17:45:00,
2013-04-24 12:49:00,59.5,27.3,27.26,West,270,4.0,6.3,29,0.00,,---,0.00,VWS V14.01,2013-04-24 17:49:00,
2013-04-24 12:54:00,59.5,27.3,27.26,West,270,8.1,8.1,29,0.00,,---,0.00,VWS V14.01,2013-04-24 17:54:00,
2013-04-24 12:59:00,59.5,27.3,27.26,WNW,292,9.2,9.2,29,0.00,,---,0.00,VWS V14.01,2013-04-24 17:59:00,
2013-04-24 13:04:00,59.5,27.3,27.26,West,270,12.3,12.3,29,0.00,,---,0.00,VWS V14.01,2013-04-24 18:04:00,
2013-04-24 13:09:00,59.5,27.3,27.26,NW,315,7.2,12.3,29,0.00,,---,0.00,VWS V14.01,2013-04-24 18:09:00,
2013-04-24 13:14:00,58.5,7.8,27.26,NW,315,12.3,14.3,13,0.00,,---,0.00,VWS V14.01,2013-04-24 18:14:00,
2013-04-24 13:19:00,58.5,7.8,27.26,NNW,338,10.3,16.8,13,0.00,,---,0.00,VWS V14.01,2013-04-24 18:19:00,
2013-04-24 13:24:00,58.5,7.8,27.26,West,270,7.6,16.8,13,0.00,,---,0.00,VWS V14.01,2013-04-24 18:24:00,
2013-04-24 13:29:00,58.5,7.8,27.26,NW,315,6.5,16.8,13,0.00,,---,0.00,VWS V14.01,2013-04-24 18:29:00,
2013-04-24 13:30:00,59.5,-4.6,27.23,West,270,14.5,15.4,7,0.00,,---,0.00,VWS V14.01,2013-04-24 18:30:00,
2013-04-24 13:34:00,58.5,7.8,27.26,NW,315,10.5,16.8,13,0.00,,---,0.00,VWS V14.01,2013-04-24 18:34:00,
2013-04-24 13:39:00,58.5,-5.4,27.26,NW,315,12.8,16.8,7,0.00,,---,0.00,VWS V14.01,2013-04-24 18:39:00,
2013-04-24 13:44:00,58.5,-5.4,27.26,NW,315,10.7,16.8,7,0.00,,---,0.00,VWS V14.01,2013-04-24 18:44:00,
2013-04-24 13:49:00,58.5,-5.4,27.26,NW,315,13.6,13.6,7,0.00,,---,0.00,VWS V14.01,2013-04-24 18:49:00,
2013-04-24 13:54:00,58.8,-5.2,27.26,WNW,292,11.9,13.6,7,0.00,,---,0.00,VWS V14.01,2013-04-24 18:54:00,
2013-04-24 13:59:00,58.8,-5.2,27.26,NNW,338,12.1,13.6,7,0.00,,---,0.00,VWS V14.01,2013-04-24 18:59:00,
2013-04-24 14:00:00,61.7,-6.2,27.23,WNW,292,5.8,22.8,6,0.00,,---,0.00,VWS V14.01,2013-04-24 19:00:00,
2013-04-24 14:04:00,58.8,-5.2,27.26,WNW,292,11.4,13.6,7,0.00,,---,0.00,VWS V14.01,2013-04-24 19:04:00,
2013-04-24 14:09:00,59.7,-4.5,27.23,WNW,292,11.2,13.6,7,0.00,,---,0.00,VWS V14.01,2013-04-24 19:09:00,
2013-04-24 14:14:00,59.7,-4.5,27.23,West,270,10.5,14.8,7,0.00,,---,0.00,VWS V14.01,2013-04-24 19:14:00,
2013-04-24 14:15:00,61.2,-6.6,27.25,NW,315,17.0,17.0,6,0.00,,---,0.00,VWS V14.01,2013-04-24 19:15:00,
2013-04-24 14:19:00,59.7,-4.5,27.23,NW,315,14.1,14.8,7,0.00,,---,0.00,VWS V14.01,2013-04-24 19:19:00,
2013-04-24 14:24:00,59.5,-4.6,27.23,West,270,10.1,15.4,7,0.00,,---,0.00,VWS V14.01,2013-04-24 19:24:00,
2013-04-24 14:29:00,59.5,-4.6,27.23,West,270,6.3,15.4,7,0.00,,---,0.00,VWS V14.01,2013-04-24 19:29:00,
2013-04-24 14:30:00,60.4,-4.0,27.25,NW,315,11.0,17.7,7,0.00,,---,0.00,VWS V14.01,2013-04-24 19:30:00,
2013-04-24 14:34:00,61.2,-6.6,27.26,NW,315,10.7,14.5,6,0.00,,---,0.00,VWS V14.01,2013-04-24 19:34:00,
2013-04-24 14:39:00,61.7,-6.2,27.26,NW,315,15.2,15.4,6,0.00,,---,0.00,VWS V14.01,2013-04-24 19:39:00,
2013-04-24 14:44:00,61.7,-6.2,27.26,NW,315,12.3,22.8,6,0.00,,---,0.00,VWS V14.01,2013-04-24 19:44:00,
2013-04-24 14:49:00,61.7,-6.2,27.26,West,270,8.7,22.8,6,0.00,,---,0.00,VWS V14.01,2013-04-24 19:49:00,
2013-04-24 14:54:00,61.7,-6.2,27.23,West,270,8.5,22.8,6,0.00,,---,0.00,VWS V14.01,2013-04-24 19:54:00,
2013-04-24 14:59:00,61.7,-6.2,27.23,NW,315,16.1,22.8,6,0.00,,---,0.00,VWS V14.01,2013-04-24 19:59:00,
2013-04-24 15:00:00,59.7,-4.5,27.25,NW,315,16.6,16.6,7,0.00,,---,0.00,VWS V14.01,2013-04-24 20:00:00,
2013-04-24 15:04:00,61.2,-6.6,27.23,West,270,7.6,7.8,6,0.00,,---,0.00,VWS V14.01,2013-04-24 20:04:00,
2013-04-24 15:09:00,61.2,-6.6,27.26,WNW,292,10.3,10.3,6,0.00,,---,0.00,VWS V14.01,2013-04-24 20:09:00,
2013-04-24 15:14:00,61.2,-6.6,27.26,WNW,292,5.6,11.0,6,0.00,,---,0.00,VWS V14.01,2013-04-24 20:14:00,
2013-04-24 15:15:00,63.0,-5.3,27.25,North,0,13.0,16.6,6,0.00,,---,0.00,VWS V14.01,2013-04-24 20:15:00,
2013-04-24 15:19:00,58.5,-5.4,27.26,NW,315,14.8,17.0,7,0.00,,---,0.00,VWS V14.01,2013-04-24 20:19:00,
2013-04-24 15:24:00,58.5,-5.4,27.26,NW,315,8.1,17.7,7,0.00,,---,0.00,VWS V14.01,2013-04-24 20:24:00,
2013-04-24 15:29:00,60.4,-4.0,27.26,NW,315,11.0,17.7,7,0.00,,---,0.00,VWS V14.01,2013-04-24 20:29:00,
2013-04-24 15:30:00,61.2,-6.6,27.25,NW,315,11.0,13.2,6,0.00,,---,0.00,VWS V14.01,2013-04-24 20:30:00,
2013-04-24 15:34:00,60.4,-4.0,27.26,NW,315,11.0,11.0,7,0.00,,---,0.00,VWS V14.01,2013-04-24 20:34:00,
2013-04-24 15:39:00,60.4,-4.0,27.26,NW,315,7.4,12.8,7,0.00,,---,0.00,VWS V14.01,2013-04-24 20:39:00,
2013-04-24 15:44:00,60.4,-4.0,27.26,West,270,10.1,12.8,7,0.00,,---,0.00,VWS V14.01,2013-04-24 20:44:00,
2013-04-24 15:49:00,60.4,-4.0,27.26,West,270,6.0,13.6,7,0.00,,---,0.00,VWS V14.01,2013-04-24 20:49:00,
2013-04-24 15:54:00,59.7,-4.5,27.26,WNW,292,6.0,13.6,7,0.00,,---,0.00,VWS V14.01,2013-04-24 20:54:00,
2013-04-24 15:59:00,59.7,-4.5,27.26,WNW,292,6.0,13.6,7,0.00,,---,0.00,VWS V14.01,2013-04-24 20:59:00,
2013-04-24 16:00:00,58.1,-5.7,27.25,WNW,292,17.2,23.0,7,0.00,,---,0.00,VWS V14.01,2013-04-24 21:00:00,
2013-04-24 16:04:00,59.7,-4.5,27.26,NW,315,10.3,16.6,7,0.00,,---,0.00,VWS V14.01,2013-04-24 21:04:00,
2013-04-24 16:09:00,62.2,-5.8,27.26,NW,315,15.4,16.6,6,0.00,,---,0.00,VWS V14.01,2013-04-24 21:09:00,
2013-04-24 16:14:00,63.0,-5.3,27.26,North,0,13.0,16.6,6,0.00,,---,0.00,VWS V14.01,2013-04-24 21:14:00,
2013-04-24 16:19:00,61.0,-6.7,27.26,WNW,292,10.7,13.0,6,0.00,,---,0.00,VWS V14.01,2013-04-24 21:19:00,
2013-04-24 16:24:00,61.2,-6.6,27.26,NW,315,13.2,13.2,6,0.00,,---,0.00,VWS V14.01,2013-04-24 21:24:00,
2013-04-24 16:29:00,61.2,-6.6,27.26,NW,315,11.0,13.2,6,0.00,,---,0.00,VWS V14.01,2013-04-24 21:29:00,
2013-04-24 16:34:00,61.2,-6.6,27.26,NW,315,22.6,22.6,6,0.00,,---,0.00,VWS V14.01,2013-04-24 21:34:00,
2013-04-24 16:39:00,58.3,-5.6,27.26,NW,315,13.2,22.6,7,0.00,,---,0.00,VWS V14.01,2013-04-24 21:39:00,
2013-04-24 16:44:00,58.1,-5.7,27.26,NW,315,13.0,22.6,7,0.00,,---,0.00,VWS V14.01,2013-04-24 21:44:00,
2013-04-24 16:45:00,60.3,-4.1,27.25,NW,315,18.1,27.5,7,0.00,,---,0.00,VWS V14.01,2013-04-24 21:45:00,
2013-04-24 16:49:00,58.3,-5.6,27.26,NW,315,7.4,22.6,7,0.00,,---,0.00,VWS V14.01,2013-04-24 21:49:00,
2013-04-24 16:54:00,58.1,-5.7,27.26,NW,315,21.0,23.0,7,0.00,,---,0.00,VWS V14.01,2013-04-24 21:54:00,
2013-04-24 16:59:00,58.1,-5.7,27.26,WNW,292,17.2,23.0,7,0.00,,---,0.00,VWS V14.01,2013-04-24 21:59:00,
2013-04-24 17:04:00,58.1,-5.7,27.26,WNW,292,17.2,17.2,7,0.00,,---,0.00,VWS V14.01,2013-04-24 22:04:00,
2013-04-24 17:09:00,58.1,-5.7,27.26,NW,315,27.5,27.5,7,0.00,,---,0.00,VWS V14.01,2013-04-24 22:09:00,
2013-04-24 17:14:00,60.3,-4.1,27.26,WNW,292,23.5,27.5,7,0.00,,---,0.00,VWS V14.01,2013-04-24 22:14:00,
2013-04-24 17:19:00,60.3,-4.1,27.26,WNW,292,10.7,27.5,7,0.00,,---,0.00,VWS V14.01,2013-04-24 22:19:00,
2013-04-24 17:24:00,60.3,-4.1,27.26,NNW,338,13.0,27.5,7,0.00,,---,0.00,VWS V14.01,2013-04-24 22:24:00,
2013-04-24 17:29:00,60.3,-4.1,27.26,NNW,338,17.9,27.5,7,0.00,,---,0.00,VWS V14.01,2013-04-24 22:29:00,
2013-04-24 17:34:00,60.3,-4.1,27.26,NW,315,19.7,27.5,7,0.00,,---,0.00,VWS V14.01,2013-04-24 22:34:00,
2013-04-24 17:39:00,60.3,-4.1,27.26,NW,315,23.0,27.5,7,0.00,,---,0.00,VWS V14.01,2013-04-24 22:39:00,
2013-04-24 17:44:00,60.3,-4.1,27.26,NW,315,14.3,27.5,7,0.00,,---,0.00,VWS V14.01,2013-04-24 22:44:00,
2013-04-24 17:45:00,59.0,-5.0,27.23,North,0,5.8,18.6,7,0.00,,---,0.00,VWS V14.01,2013-04-24 22:45:00,
2013-04-24 17:49:00,60.3,-4.1,27.26,NW,315,18.1,18.1,7,0.00,,---,0.00,VWS V14.01,2013-04-24 22:49:00,
2013-04-24 17:54:00,60.3,-4.1,27.26,NW,315,12.8,18.1,7,0.00,,---,0.00,VWS V14.01,2013-04-24 22:54:00,
2013-04-24 17:59:00,60.3,-4.1,27.26,NW,315,12.3,18.6,7,0.00,,---,0.00,VWS V14.01,2013-04-24 22:59:00,
2013-04-24 18:04:00,59.4,-4.8,27.26,NW,315,16.1,18.6,7,0.00,,---,0.00,VWS V14.01,2013-04-24 23:04:00,
2013-04-24 18:09:00,59.4,-4.8,27.26,NW,315,10.1,18.6,7,0.00,,---,0.00,VWS V14.01,2013-04-24 23:09:00,
2013-04-24 18:14:00,59.4,-4.8,27.26,NW,315,10.1,18.6,7,0.00,,---,0.00,VWS V14.01,2013-04-24 23:14:00,
2013-04-24 18:19:00,59.0,-5.0,27.26,NW,315,17.7,18.6,7,0.00,,---,0.00,VWS V14.01,2013-04-24 23:19:00,
2013-04-24 18:24:00,59.0,-5.0,27.26,NW,315,10.7,18.6,7,0.00,,---,0.00,VWS V14.01,2013-04-24 23:24:00,
2013-04-24 18:29:00,59.0,-5.0,27.26,NW,315,10.5,18.6,7,0.00,,---,0.00,VWS V14.01,2013-04-24 23:29:00,
2013-04-24 18:30:00,57.2,-6.3,27.25,NNE,22,9.2,13.4,7,0.00,,---,0.00,VWS V14.01,2013-04-24 23:30:00,
2013-04-24 18:34:00,59.0,-5.0,27.26,NW,315,12.8,18.6,7,0.00,,---,0.00,VWS V14.01,2013-04-24 23:34:00,
2013-04-24 18:39:00,59.0,-5.0,27.23,NNE,22,6.5,18.6,7,0.00,,---,0.00,VWS V14.01,2013-04-24 23:39:00,
2013-04-24 18:44:00,59.0,-5.0,27.23,NNE,22,6.5,18.6,7,0.00,,---,0.00,VWS V14.01,2013-04-24 23:44:00,
2013-04-24 18:45:00,55.8,5.7,27.25,NW,315,8.5,9.2,13,0.00,,---,0.00,VWS V14.01,2013-04-24 23:45:00,
2013-04-24 18:49:00,59.0,-5.0,27.23,NE,45,10.5,10.5,7,0.00,,---,0.00,VWS V14.01,2013-04-24 23:49:00,
2013-04-24 18:54:00,59.0,-5.0,27.23,North,0,7.6,11.4,7,0.00,,---,0.00,VWS V14.01,2013-04-24 23:54:00,
2013-04-24 18:59:00,55.9,10.4,27.23,North,0,6.0,12.8,16,0.00,,---,0.00,VWS V14.01,2013-04-24 23:59:00,
2013-04-24 19:00:00,54.5,18.5,27.25,North,0,9.2,9.2,24,0.00,,---,0.00,VWS V14.01,2013-04-25 00:00:00,
2013-04-24 19:04:00,55.9,10.4,27.23,North,0,7.8,12.8,16,0.00,,---,0.00,VWS V14.01,2013-04-25 00:04:00,
2013-04-24 19:09:00,57.2,-6.3,27.23,NW,315,13.2,13.4,7,0.00,,---,0.00,VWS V14.01,2013-04-25 00:09:00,
2013-04-24 19:14:00,57.2,-6.3,27.26,NW,315,7.2,13.4,7,0.00,,---,0.00,VWS V14.01,2013-04-25 00:14:00,
2013-04-24 19:15:00,51.8,19.8,27.25,North,0,4.9,9.2,28,0.00,,---,0.00,VWS V14.01,2013-04-25 00:15:00,
2013-04-24 19:19:00,57.2,-6.3,27.26,NNW,338,10.1,13.4,7,0.00,,---,0.00,VWS V14.01,2013-04-25 00:19:00,
2013-04-24 19:24:00,57.2,-6.3,27.26,NNW,338,4.5,13.4,7,0.00,,---,0.00,VWS V14.01,2013-04-25 00:24:00,
2013-04-24 19:29:00,57.2,-6.3,27.26,North,0,8.5,13.4,7,0.00,,---,0.00,VWS V14.01,2013-04-25 00:29:00,
2013-04-24 19:30:00,48.4,19.9,27.25,North,0,5.8,6.3,32,0.00,,---,0.00,VWS V14.01,2013-04-25 00:30:00,
2013-04-24 19:34:00,57.2,-6.3,27.26,NNE,22,9.2,9.2,7,0.00,,---,0.00,VWS V14.01,2013-04-25 00:34:00,
2013-04-24 19:39:00,57.2,-6.3,27.26,NW,315,5.8,9.2,7,0.00,,---,0.00,VWS V14.01,2013-04-25 00:39:00,
2013-04-24 19:44:00,57.2,-6.3,27.26,NW,315,8.7,9.2,7,0.00,,---,0.00,VWS V14.01,2013-04-25 00:44:00,
2013-04-24 19:49:00,55.8,5.7,27.26,NNW,338,5.6,8.5,13,0.00,,---,0.00,VWS V14.01,2013-04-25 00:49:00,
2013-04-24 19:54:00,55.8,5.7,27.26,NNW,338,4.3,8.5,13,0.00,,---,0.00,VWS V14.01,2013-04-25 00:54:00,
2013-04-24 19:59:00,54.5,18.5,27.26,WNW,292,4.9,8.5,24,0.00,,---,0.00,VWS V14.01,2013-04-25 00:59:00,
2013-04-24 20:00:00,44.1,20.7,27.28,North,0,6.0,6.7,39,0.00,,---,0.00,VWS V14.01,2013-04-25 01:00:00,
2013-04-24 20:04:00,54.5,18.5,27.26,North,0,9.2,9.2,24,0.00,,---,0.00,VWS V14.01,2013-04-25 01:04:00,
2013-04-24 20:09:00,54.5,18.5,27.26,NW,315,5.8,9.2,24,0.00,,---,0.00,VWS V14.01,2013-04-25 01:09:00,
2013-04-24 20:14:00,51.8,19.8,27.26,North,0,4.9,9.2,28,0.00,,---,0.00,VWS V14.01,2013-04-25 01:14:00,
2013-04-24 20:15:00,41.0,19.7,27.31,North,0,6.0,6.5,42,0.00,,---,0.00,VWS V14.01,2013-04-25 01:15:00,
2013-04-24 20:19:00,51.8,19.8,27.26,North,0,4.9,4.9,28,0.00,,---,0.00,VWS V14.01,2013-04-25 01:19:00,
2013-04-24 20:24:00,51.8,19.8,27.26,North,0,6.3,6.3,28,0.00,,---,0.00,VWS V14.01,2013-04-25 01:24:00,
2013-04-24 20:29:00,48.4,19.9,27.26,North,0,5.8,6.3,32,0.00,,---,0.00,VWS V14.01,2013-04-25 01:29:00,
2013-04-24 20:30:00,38.7,19.2,27.31,North,0,4.9,6.0,45,0.00,,---,0.00,VWS V14.01,2013-04-25 01:30:00,
2013-04-24 20:34:00,48.4,19.9,27.26,NW,315,5.4,5.8,32,0.00,,---,0.00,VWS V14.01,2013-04-25 01:34:00,
2013-04-24 20:39:00,47.3,20.4,27.28,North,0,4.3,5.8,34,0.00,,---,0.00,VWS V14.01,2013-04-25 01:39:00,
2013-04-24 20:43:00,47.3,20.4,27.28,North,0,4.0,5.8,34,0.00,,---,0.00,VWS V14.01,2013-04-25 01:43:00,
2013-04-24 20:45:00,37.4,18.5,27.28,North,0,3.8,4.9,46,0.00,,---,0.00,VWS V14.01,2013-04-25 01:45:00,
2013-04-24 20:48:00,47.3,20.4,27.28,North,0,5.8,5.8,34,0.00,,---,0.00,VWS V14.01,2013-04-25 01:48:00,
2013-04-24 20:53:00,47.3,20.4,27.28,North,0,6.7,6.7,34,0.00,,---,0.00,VWS V14.01,2013-04-25 01:53:00,
2013-04-24 20:58:00,44.1,20.7,27.28,North,0,6.5,6.7,39,0.00,,---,0.00,VWS V14.01,2013-04-25 01:58:00,
2013-04-24 21:00:00,36.9,18.5,27.31,North,0,3.8,3.8,47,0.00,,---,0.00,VWS V14.01,2013-04-25 02:00:00,
2013-04-24 21:03:00,44.1,20.7,27.28,North,0,6.5,6.5,39,0.00,,---,0.00,VWS V14.01,2013-04-25 02:03:00,
2013-04-24 21:08:00,41.9,19.9,27.31,North,0,5.8,6.5,41,0.00,,---,0.00,VWS V14.01,2013-04-25 02:08:00,
2013-04-24 21:13:00,41.0,19.7,27.31,North,0,6.5,6.5,42,0.00,,---,0.00,VWS V14.01,2013-04-25 02:13:00,
2013-04-24 21:15:00,36.3,19.0,27.31,North,0,4.0,4.9,49,0.00,,---,0.00,VWS V14.01,2013-04-25 02:15:00,
2013-04-24 21:18:00,39.9,19.2,27.31,North,0,5.4,6.0,43,0.00,,---,0.00,VWS V14.01,2013-04-25 02:18:00,
2013-04-24 21:23:00,39.7,19.6,27.31,North,0,4.9,6.0,44,0.00,,---,0.00,VWS V14.01,2013-04-25 02:23:00,
2013-04-24 21:28:00,39.7,19.6,27.31,North,0,5.6,6.0,44,0.00,,---,0.00,VWS V14.01,2013-04-25 02:28:00,
2013-04-24 21:30:00,36.3,19.0,27.34,NW,315,2.7,4.0,49,0.00,,---,0.00,VWS V14.01,2013-04-25 02:30:00,
2013-04-24 21:33:00,38.7,19.2,27.31,North,0,4.3,4.9,45,0.00,,---,0.00,VWS V14.01,2013-04-25 02:33:00,
2013-04-24 21:38:00,38.1,19.2,27.28,North,0,4.3,4.9,46,0.00,,---,0.00,VWS V14.01,2013-04-25 02:38:00,
2013-04-24 21:43:00,38.1,19.2,27.28,North,0,4.3,4.9,46,0.00,,---,0.00,VWS V14.01,2013-04-25 02:43:00,
2013-04-24 21:45:00,36.3,19.0,27.34,North,0,4.7,4.7,49,0.00,,---,0.00,VWS V14.01,2013-04-25 02:45:00,
2013-04-24 21:48:00,37.4,18.5,27.28,NW,315,3.1,3.8,46,0.00,,---,0.00,VWS V14.01,2013-04-25 02:48:00,
2013-04-24 21:53:00,36.9,18.5,27.28,North,0,2.9,3.8,47,0.00,,---,0.00,VWS V14.01,2013-04-25 02:53:00,
2013-04-24 21:58:00,36.9,18.5,27.31,North,0,3.8,3.8,47,0.00,,---,0.00,VWS V14.01,2013-04-25 02:58:00,
2013-04-24 22:00:00,36.3,19.0,27.34,NW,315,2.5,2.5,49,0.00,,---,0.00,VWS V14.01,2013-04-25 03:00:00,
2013-04-24 22:01:00,36.3,19.0,27.34,NW,315,2.5,2.5,49,0.00,,---,0.00,VWS V14.01,2013-04-25 03:01:00,
2013-04-24 22:02:00,36.3,19.0,27.34,NW,315,2.5,2.5,49,0.00,,---,0.00,VWS V14.01,2013-04-25 03:02:00,
2013-04-24 22:03:00,36.9,18.5,27.31,NNW,338,3.6,3.8,47,0.00,,---,0.00,VWS V14.01,2013-04-25 03:03:00,
2013-04-24 22:04:00,36.3,19.0,27.34,SW,225,0.0,2.5,49,0.00,,---,0.00,VWS V14.01,2013-04-25 03:04:00,
2013-04-24 22:08:00,36.3,19.0,27.31,North,0,4.3,4.3,49,0.00,,---,0.00,VWS V14.01,2013-04-25 03:08:00,
2013-04-24 22:13:00,36.3,19.0,27.31,North,0,4.0,4.9,49,0.00,,---,0.00,VWS V14.01,2013-04-25 03:13:00,
2013-04-24 22:15:00,36.3,19.0,27.34,South,180,0.0,2.5,49,0.00,,---,0.00,VWS V14.01,2013-04-25 03:15:00,
2013-04-24 22:18:00,36.3,19.0,27.34,North,0,4.0,4.0,49,0.00,,---,0.00,VWS V14.01,2013-04-25 03:18:00,
2013-04-24 22:23:00,36.3,19.0,27.34,NW,315,2.5,4.0,49,0.00,,---,0.00,VWS V14.01,2013-04-25 03:23:00,
2013-04-24 22:28:00,36.3,19.0,27.34,WNW,292,3.1,4.0,49,0.00,,---,0.00,VWS V14.01,2013-04-25 03:28:00,
2013-04-24 22:30:00,36.3,19.0,27.34,NE,45,1.6,2.0,49,0.00,,---,0.00,VWS V14.01,2013-04-25 03:30:00,
2013-04-24 22:33:00,36.3,19.0,27.34,NW,315,2.5,3.1,49,0.00,,---,0.00,VWS V14.01,2013-04-25 03:33:00,
2013-04-24 22:38:00,36.3,19.0,27.34,NW,315,2.0,3.1,49,0.00,,---,0.00,VWS V14.01,2013-04-25 03:38:00,
2013-04-24 22:43:00,36.3,19.0,27.34,NW,315,1.3,3.1,49,0.00,,---,0.00,VWS V14.01,2013-04-25 03:43:00,
2013-04-24 22:48:00,36.3,19.0,27.34,North,0,4.5,4.9,49,0.00,,---,0.00,VWS V14.01,2013-04-25 03:48:00,
2013-04-24 22:53:00,36.3,19.0,27.34,North,0,4.5,4.9,49,0.00,,---,0.00,VWS V14.01,2013-04-25 03:53:00,
2013-04-24 22:58:00,36.3,19.0,27.34,NW,315,3.1,4.9,49,0.00,,---,0.00,VWS V14.01,2013-04-25 03:58:00,
2013-04-24 23:04:00,36.3,19.0,27.34,SW,225,0.0,2.5,49,0.00,,---,0.00,VWS V14.01,2013-04-25 04:04:00,
2013-04-24 23:09:00,36.3,19.0,27.34,South,180,0.0,2.5,49,0.00,,---,0.00,VWS V14.01,2013-04-25 04:09:00,
2013-04-24 23:14:00,36.3,19.0,27.34,South,180,0.0,2.5,49,0.00,,---,0.00,VWS V14.01,2013-04-25 04:14:00,
2013-04-24 23:19:00,36.3,19.0,27.34,South,180,0.0,0.0,49,0.00,,---,0.00,VWS V14.01,2013-04-25 04:19:00,
2013-04-24 23:24:00,36.3,19.0,27.34,SSE,158,0.0,0.0,49,0.00,,---,0.00,VWS V14.01,2013-04-25 04:24:00,
2013-04-24 23:29:00,36.3,19.0,27.34,NE,45,2.0,2.0,49,0.00,,---,0.00,VWS V14.01,2013-04-25 04:29:00,
2013-04-24 23:34:00,36.3,19.0,27.34,NE,45,1.6,1.6,49,0.00,,---,0.00,VWS V14.01,2013-04-25 04:34:00,
2013-04-24 23:39:00,36.3,19.0,27.34,NE,45,1.6,1.6,49,0.00,,---,0.00,VWS V14.01,2013-04-25 04:39:00,
2013-04-24 23:44:00,36.3,19.0,27.34,NE,45,0.0,1.6,49,0.00,,---,0.00,VWS V14.01,2013-04-25 04:44:00,
2013-04-24 23:45:00,36.3,19.0,27.34,North,0,0.0,3.4,49,0.00,,---,0.00,VWS V14.01,2013-04-25 04:45:00,
2013-04-24 23:49:00,36.3,19.0,27.34,NE,45,0.0,1.6,49,0.00,,---,0.00,VWS V14.01,2013-04-25 04:49:00,
2013-04-24 23:54:00,36.3,19.0,27.34,NE,45,0.0,1.6,49,0.00,,---,0.00,VWS V14.01,2013-04-25 04:54:00,
2013-04-24 23:59:00,36.3,19.0,27.34,North,0,0.0,1.6,49,0.00,,---,0.00,VWS V14.01,2013-04-25 04:59:00,